Location: Tryon
(41.5533°N, 100.9574°W)
Time: 14:56:23
(UTC-05:00)

Tiangong 2 - Pass Details

Date: 23 March 2019
Orbit: 378 x 390 km, 42.8° (Epoch: 23 April)

Event Time Altitude Azimuth Distance (km) Brightness Sun altitude
Exits shadow 06:28:28 23° 211° (SSW) 859 2.4 -14.5°
Maximum altitude 06:28:29 23° 210° (SSW) 859 2.4 -14.5°
Drops below altitude 10° 06:31:04 10° 155° (SSE) 1,394 4.0 -14.0°
Sets 06:33:22 0° 140° (SE) 2,247 5.3 -13.6°
